Location: Calvatone
(45.1167°N, 10.4333°E)
Time: 17:10:02
(UTC+00:00)

BlueWalker 3 - Pass Details

Date: 13 June 2023
Orbit: 491 x 508 km, 53.2° (Epoch: 28 September)

Event Time Altitude Azimuth Distance (km) Brightness Sun altitude
Rises 21:06:04 0° 299° (WNW) 2,580 6.7 -15.3°
Reaches altitude 10° 21:08:18 10° 293° (WNW) 1,698 5.4 -15.5°
Maximum altitude 21:11:57 43° 221° (SW) 704 2.5 -15.8°
Enters shadow 21:13:13 31° 174° (S) 887 2.7 -15.9°
